This is the latest recevied weather packets stored in our database for station/object DC7RY. If no packets are shown the sender has not sent any weather packets the latest 10 day(s).
| Time | Temp. | Humidity | Pressure | Rain* | Wind** | Luminosity | Snow |
|---|---|---|---|---|---|---|---|
| 1777477830 | 14.44° C | 33% | 1018.1 hPa | 0 mm | - | 292 W/m² | - |
| 1777477222 | 15° C | 31% | 1018.2 hPa | 0 mm | - | 303 W/m² | - |
| 1777476630 | 15° C | 31% | 1018.1 hPa | 0 mm | - | 312 W/m² | - |
| 1777476022 | 15.56° C | 30% | 1018.2 hPa | 0 mm | - | 324 W/m² | - |
| 1777475430 | 15.56° C | 31% | 1018.2 hPa | 0 mm | - | 331 W/m² | - |
| 1777474822 | 15.56° C | 31% | 1018.3 hPa | 0 mm | - | 337 W/m² | - |
| 1777474230 | 15.56° C | 30% | 1018.2 hPa | 0 mm | - | 338 W/m² | - |
| 1777473622 | 15.56° C | 31% | 1018.2 hPa | 0 mm | - | 344 W/m² | - |
| 1777473030 | 15.56° C | 31% | 1018.2 hPa | 0 mm | - | 349 W/m² | - |
| 1777472422 | 15.56° C | 33% | 1018.3 hPa | 0 mm | - | 355 W/m² | - |
| 1777471830 | 15.56° C | 33% | 1018.2 hPa | 0 mm | - | 356 W/m² | - |
| 1777471222 | 15.56° C | 34% | 1018.2 hPa | 0 mm | - | 361 W/m² | - |
| 1777470630 | 15.56° C | 35% | 1018.2 hPa | 0 mm | - | 360 W/m² | - |
| 1777470022 | 15.56° C | 35% | 1018.1 hPa | 0 mm | - | 360 W/m² | - |
| 1777469430 | 15.56° C | 34% | 1018.1 hPa | 0 mm | - | 370 W/m² | - |
| 1777468822 | 15° C | 35% | 1018 hPa | 0 mm | - | 369 W/m² | - |
| 1777468230 | 15° C | 36% | 1018.1 hPa | 0 mm | - | 371 W/m² | - |
| 1777467622 | 15° C | 35% | 1018 hPa | 0 mm | - | 366 W/m² | - |
| 1777467030 | 15° C | 35% | 1018.2 hPa | 0 mm | - | 349 W/m² | - |
| 1777466422 | 15° C | 35% | 1018.1 hPa | 0 mm | - | 158 W/m² | - |
| 1777465830 | 14.44° C | 37% | 1018.2 hPa | 0 mm | - | 115 W/m² | - |
| 1777465222 | 14.44° C | 36% | 1018.1 hPa | 0 mm | - | 194 W/m² | - |
| 1777464630 | 14.44° C | 35% | 1018.2 hPa | 0 mm | - | 84 W/m² | - |
| 1777464022 | 14.44° C | 36% | 1018.3 hPa | 0 mm | - | 53 W/m² | - |
| 1777463429 | 14.44° C | 35% | 1018.3 hPa | 0 mm | - | 55 W/m² | - |
* Rain latest hour (hover to see other rain measurements)
** Current wind speed in m/s (hover to see current wind gust speed)